Home   Weather   Pullman   Past weeks

Flag for USA Past Weather in Pullman, Washington, USA — Yesterday and Last 2 Weeks

Now
30 °F

Light snow. Ice fog.


Feels Like: 24 °F
Forecast: 26 / 38 °F
Wind: 6 mph from Southwest

Location: Pullman / Moscow Regional Airport

Current Time: Dec 11, 2016 at 2:17:51 am

Latest Report: Dec 11, 2016 at 12:53 am


Visibility: 3 mi

Pressure: 30.02 "Hg (27.44 "Hg at 715m altitude)

Humidity: 96%

Dew Point: 29 °F

Location of PullmanLocation

Past Weather in Pullman — Graph

°F

Pullman Temperature Yesterday

Maximum temperature yesterday: 32 °F (at 1:53 am)
Minimum temperature yesterday: 19 °F (at 7:03 am)
Average temperature yesterday: 24 °F

High & Low Weather Summary for the Past Weeks

 TemperatureHumidityPressure
High46 °F (Nov 26, 1:53 pm)100% (Nov 29, 7:53 am)30.52 "Hg (Nov 29, 7:53 am)
Low13 °F (Dec 7, 7:53 pm)53% (Nov 26, 6:53 pm)29.45 "Hg (Nov 26, 10:53 pm)
Average31 °F81%30.06 "Hg
* Reported Nov 26 12:53 am — Dec 11 12:53 am, Pullman, Weather by CustomWeather, © 2016

Note: Actual official high and low records may vary slightly from our data, if they occured in-between our weather recording intervals... More about our weather records

Advertising

Pullman Weather History for the Previous 24 Hours

Scroll right to see more
 ConditionsComfort  
Time TempWeatherWind HumidityBarometerVisibility
12:53 am
Sun, Dec 11
30 °FLight snow. Ice fog.6 mph96%30.02 "Hg3 mi
12:00 am30 °FLight snow. Ice fog.7 mph89%29.93 "Hg2 mi
10:53 pm
Sat, Dec 10
28 °FLight snow. Ice fog.9 mph93%30.02 "Hg3 mi
9:53 pm29 °FLight snow. Ice fog.9 mph89%30.01 "Hg3 mi
8:53 pm29 °FLight snow. Ice fog.8 mph85%30.01 "Hg1 mi
7:53 pm27 °FMostly cloudy.10 mph89%30.01 "Hg8 mi
6:53 pm26 °FMostly cloudy.8 mph84%30.01 "Hg10 mi
5:53 pm25 °FPartly cloudy.7 mph88%30.02 "Hg10 mi
4:53 pm26 °FMostly cloudy.9 mph84%30.01 "Hg10 mi
3:53 pm26 °FLow clouds.8 mph84%30.00 "Hg8 mi
2:53 pm25 °FOvercast.5 mph85%29.99 "Hg8 mi
1:53 pm23 °FLow clouds.5 mph88%29.99 "Hg8 mi
12:53 pm23 °FLow clouds.No wind85%30.00 "Hg9 mi
11:53 am21 °FIce fog.5 mph92%30.01 "Hg5 mi
10:53 am20 °FIce fog.3 mph92%30.01 "Hg3 mi
9:53 am20 °FIce fog.5 mph92%30.01 "Hg4 mi
8:53 am19 °FIce fog.7 mph92%29.99 "Hg4 mi
7:53 am19 °FLight snow. Ice fog.10 mph92%29.97 "Hg3 mi
7:03 am19 °FPartly cloudy.5 mph92%29.83 "Hg8 mi
6:53 am20 °FLight snow. Passing clouds.8 mph89%29.93 "Hg7 mi
5:53 am20 °FLight snow. Ice fog.5 mph92%29.91 "Hg3 mi
5:04 am20 °FLight snow. Ice fog.16 mph92%29.80 "Hg1 mi
3:57 am23 °FLight snow. Ice fog.15 mph88%29.78 "Hg2 mi
2:53 am32 °FOvercast.10 mph88%29.85 "Hg9 mi
Weather by CustomWeather, © 2016

See weather overviewHow to use our weather pages